Temperature
26 26 26 26 26 26 25 25 24 24 23 24 23 23 23 22 21 21 20 20 20 19 19 19 18 18 18 18 18 17 17 17 16 16 16 16 16 16 15 15 15 15 15 15
25 26 26 25 26 25 25 25 25 24 23 24 24 23 22 22 21 20 20 19 19 19 19 19 18 18 18 18 18 17 17 17 16 16 16 16 16 15 15 15 15 15 15 15
25 26 25 24 25 25 25 25 25 24 23 23 23 22 22 21 20 20 19 19 19 18 18 18 18 18 18 18 17 17 17 17 16 16 16 16 15 15 15 15 15 15 15 15
25 25 23 24 26 25 24 24 25 24 23 23 22 22 21 20 20 19 19 18 18 18 18 18 18 18 18 17 17 17 17 16 16 16 16 15 15 15 15 15 15 14 14 14
24 24 24 24 25 25 24 23 24 23 23 22 22 21 20 20 19 18 18 18 17 17 17 17 17 17 17 17 17 16 16 16 16 16 15 15 15 15 15 15 14 14 14 14
24 23 23 23 24 25 24 22 23 23 23 22 22 20 19 19 18 18 17 17 17 17 17 17 17 16 16 16 16 16 16 15 15 15 15 15 15 15 15 14 14 14 14 14
23 23 23 23 23 24 22 22 23 22 22 21 21 20 19 18 18 17 17 17 16 16 16 16 16 16 16 15 15 15 15 15 15 15 15 15 14 14 14 14 14 14 14 14
23 23 22 22 23 22 21 22 21 21 20 20 19 19 18 17 17 17 16 16 16 15 15 15 15 15 15 15 15 14 14 14 14 14 14 14 14 14 14 14 13 13 13 13
22 21 21 21 21 21 20 20 20 20 19 18 18 18 17 17 16 16 16 15 15 15 15 15 14 14 14 14 14 14 14 14 14 14 14 14 14 13 13 13 13 13 13 13
21 20 20 20 20 19 19 19 18 18 18 18 17 17 17 16 16 15 15 15 15 14 14 14 14 14 14 13 13 13 13 13 13 13 13 13 13 13 13 13 13 13 13 13
21 19 19 19 18 18 18 17 17 17 17 17 16 16 16 16 15 15 14 14 14 14 14 13 13 13 13 13 13 13 12 13 13 12 12 12 12 12 12 12 12 12 12 12
20 19 19 18 17 17 17 16 16 16 16 16 15 15 15 15 14 14 14 13 13 13 13 13 13 13 12 12 12 12 12 12 12 12 12 12 12 12 12 12 12 12 12 12
19 18 18 17 17 16 16 16 15 15 15 15 15 14 14 14 14 13 13 13 13 12 12 12 12 12 12 12 12 11 11 11 11 11 11 11 11 11 11 11 11 11 11 11
17 17 17 16 16 15 15 15 15 15 14 14 14 14 13 13 13 13 12 12 12 12 12 11 11 11 11 11 11 11 11 11 10 11 11 10 10 10 10 10 10 10 11 11
16 16 16 15 15 15 14 14 14 14 13 13 13 13 12 12 12 12 12 11 11 11 11 11 11 10 10 10 10 10 10 10 10 10 10 10 10 10 10 10 10 10 10 10
15 15 15 14 14 14 14 13 13 13 13 12 12 12 12 12 11 11 11 11 10 10 10 10 10 10 10 10 9 9 9 9 9 9 9 9 9 9 9 9 9 9 9 9
14 14 14 13 13 13 13 13 12 12 12 12 11 11 11 11 11 11 10 10 10 10 10 10 10 9 9 9 9 9 9 8 8 8 8 9 9 9 9 9 9 8 8 9
13 13 13 13 13 12 12 12 12 12 11 11 11 10 10 10 10 10 10 10 10 9 9 9 9 9 9 8 8 8 8 8 8 8 8 8 8 8 8 8 8 8 8 8
12 12 12 12 12 12 11 11 11 11 11 10 10 10 10 10 10 9 9 9 9 9 9 9 8 8 8 8 8 7 7 7 7 7 7 7 7 7 7 7 7 7 7 7
12 11 11 11 11 11 11 11 10 10 10 10 10 9 9 9 9 9 9 9 9 8 8 8 8 7 7 7 7 7 6 6 6 6 6 6 6 6 6 6 6 7 7 7
11 11 11 11 10 10 10 10 10 10 9 9 9 9 9 9 9 8 8 8 8 8 8 7 7 7 7 6 6 6 6 6 6 6 6 6 6 6 6 6 6 6 6 6
11 10 10 10 10 10 10 10 9 9 9 9 9 8 8 8 8 8 8 8 8 7 7 7 6 6 6 6 6 6 5 5 5 5 5 5 5 5 5 5 5 5 5 5
10 10 10 10 10 9 9 9 9 9 8 8 8 8 8 8 8 7 7 7 7 7 7 6 6 6 5 5 5 5 5 5 5 5 5 5 5 5 5 5 5 5 5 5
10 9 9 9 9 9 9 8 8 8 8 8 7 7 7 7 7 7 7 7 7 6 6 6 5 5 5 5 5 5 5 5 5 4 4 4 4 4 4 4 4 4 4 4
9 9 9 9 8 8 8 8 8 7 7 7 7 7 7 7 6 6 6 6 6 6 5 5 5 5 5 5 4 4 4 4 4 4 4 4 4 4 4 4 4 4 4 4
9 8 8 8 8 8 7 7 7 7 7 7 7 6 6 6 6 6 5 5 5 5 5 5 5 4 4 4 4 4 4 4 4 4 4 4 3 3 3 3 3 3 3 3
8 8 8 7 7 7 7 7 7 7 6 6 6 6 6 5 5 5 5 5 5 4 4 4 4 4 4 4 4 4 4 4 4 3 3 3 3 3 3 3 3 3 3 3
Wind_Speed
1 2 2 1 1 0 1 3 2 6 8 8 9 9 8 8 8 7 6 6 5 4 3 3 1 1 1 1 1 1 2 1 2 2 1 1 2 2 3 3 4 3 3 3
3 3 3 3 3 2 1 0 4 5 6 8 9 8 8 8 7 7 6 5 5 4 3 2 2 1 1 0 0 1 2 2 2 1 1 1 2 3 3 2 3 4 4 3
3 5 6 5 4 5 3 1 2 3 5 9 8 8 7 8 7 7 6 5 5 4 4 3 3 2 1 1 0 0 1 1 1 1 1 2 2 3 3 3 4 5 5 4
4 6 6 3 6 6 4 3 4 8 9 8 8 8 8 7 7 6 6 5 5 5 5 5 5 4 3 2 2 2 1 1 0 1 2 2 3 4 4 3 4 4 5 5
4 4 3 6 6 6 4 4 5 7 8 8 10 9 8 8 7 6 6 5 4 4 4 5 5 5 4 3 3 3 3 3 2 1 2 2 3 4 4 4 4 4 5 5
5 5 3 5 7 5 4 4 5 6 7 7 7 4 5 6 7 7 6 5 4 4 5 6 6 6 5 4 4 4 3 4 3 2 3 3 4 4 4 4 5 5 6 6
8 6 2 6 6 4 3 4 6 6 6 5 5 5 7 7 7 6 5 5 4 4 4 4 5 5 5 5 4 4 3 4 4 4 4 4 3 3 4 4 5 6 6 6
6 6 2 4 4 2 6 9 8 8 7 8 8 8 7 6 5 4 4 4 4 3 3 3 4 5 5 5 5 4 4 4 4 4 5 4 3 4 4 4 5 6 6 6
2 4 7 7 8 9 9 8 8 7 7 7 6 5 4 4 3 3 3 3 3 3 3 3 3 4 4 4 5 5 5 5 5 5 4 4 3 4 4 4 4 5 5 5
4 6 7 8 8 8 8 8 7 7 6 5 4 3 3 2 2 3 3 3 3 4 4 4 4 4 4 4 5 5 6 6 5 5 5 4 4 4 4 4 4 5 5 6
2 6 6 6 6 7 7 7 7 6 5 4 3 2 2 2 3 3 3 3 3 3 4 5 4 4 4 4 4 6 6 6 6 5 5 4 4 4 5 5 5 6 6 6
1 5 4 6 6 6 6 5 4 4 3 3 3 3 3 3 3 3 3 3 3 4 4 5 6 6 5 5 5 6 5 5 5 5 5 4 5 6 8 9 11 11 11 10
3 5 5 6 6 5 4 4 3 2 2 2 3 3 3 4 3 3 4 4 4 4 5 5 6 6 6 6 6 7 7 6 5 5 5 5 5 6 7 8 11 12 13 13
5 5 5 5 5 4 3 3 2 2 2 2 3 3 3 4 4 4 4 4 5 5 6 6 5 6 6 7 7 7 7 8 7 5 5 6 6 6 7 7 8 7 9 11
2 2 3 5 4 4 3 2 2 1 1 2 3 3 4 4 4 5 5 5 6 6 6 6 6 6 6 6 7 8 7 6 6 6 6 7 7 7 7 8 8 8 6 6
3 4 5 5 4 3 2 1 0 1 2 3 3 4 5 5 5 5 5 5 6 7 7 6 6 6 6 7 7 6 6 10 10 7 7 7 7 7 7 7 8 7 7 6
5 5 5 4 4 2 1 0 1 2 2 3 4 4 5 6 6 5 5 5 6 7 7 7 6 6 7 7 7 6 6 8 11 9 7 7 7 8 8 8 8 8 8 8
4 3 3 3 2 2 1 1 2 2 3 3 4 5 5 6 6 6 7 7 7 7 6 6 6 6 7 7 7 6 7 8 8 8 8 8 8 8 8 9 9 10 8 8
3 3 2 1 0 0 1 1 2 3 3 4 5 5 6 6 6 7 7 7 7 7 7 6 9 8 8 8 8 6 8 9 9 8 9 11 10 9 9 9 9 9 9 8
3 2 2 1 1 1 2 2 3 3 4 5 5 6 7 7 7 7 7 7 5 5 6 7 7 7 8 7 9 6 8 9 10 9 9 9 9 10 9 10 10 10 9 8
3 2 3 3 3 3 3 4 4 5 5 5 6 7 8 8 8 7 7 6 6 6 6 8 7 6 6 8 10 7 8 9 10 9 9 9 10 10 10 10 10 10 10 9
3 3 4 4 4 4 4 5 5 6 6 6 7 7 8 8 8 8 7 6 6 7 6 5 5 8 10 12 7 8 9 9 9 9 9 9 9 10 10 10 10 10 9 9
4 4 5 5 5 5 5 5 6 6 6 7 7 8 8 7 6 6 7 6 5 8 6 6 9 14 17 11 8 8 9 9 9 9 9 9 9 9 9 10 9 9 9 8
5 5 5 6 6 6 6 6 6 5 6 7 7 8 8 6 6 5 5 7 8 9 7 9 15 18 17 9 8 8 8 8 8 9 9 8 8 8 8 9 9 9 9 10
6 6 6 5 5 5 6 6 6 6 6 6 7 7 6 5 5 6 6 7 10 11 8 11 18 18 12 9 9 9 8 8 9 9 8 8 8 8 9 8 9 9 9 9
5 4 4 5 5 4 4 4 5 5 5 5 5 5 5 5 6 6 6 7 10 12 9 7 8 10 8 8 9 9 9 9 10 9 8 8 9 9 8 9 10 9 9 8
5 5 4 4 4 4 4 4 5 5 5 5 6 5 5 6 6 7 8 8 8 8 8 7 7 7 8 8 9 9 9 8 8 8 8 8 8 8 8 10 9 8 8 8
Wind_Direction
162 112 123 129 145 150 341 346 69 110 124 128 120 114 110 105 98 92 85 77 77 81 82 92 79 61 99 141 158 169 168 183 231 234 212 248 282 281 280 293 296 287 275 266
215 191 178 192 206 198 208 84 121 117 103 108 111 109 111 107 101 92 81 71 62 61 67 73 79 63 41 27 187 175 170 194 220 223 228 241 275 289 286 283 284 284 273 265
237 193 190 211 201 194 186 199 172 148 116 117 111 106 104 105 98 86 74 63 49 40 36 35 39 51 61 314 291 179 148 171 196 209 229 230 257 270 270 270 270 277 284 276
238 221 230 120 106 116 119 96 93 107 114 118 114 100 90 90 92 86 76 64 47 32 30 21 22 20 17 29 34 25 19 24 252 246 251 245 251 267 264 264 262 257 272 279
251 241 205 147 143 144 144 131 105 119 125 126 121 106 93 82 80 76 69 61 48 29 28 22 18 8 2 17 29 26 10 355 348 315 277 260 256 262 264 268 269 259 257 257
262 247 237 128 128 128 151 153 120 123 131 140 142 140 113 94 81 72 64 56 43 29 29 23 11 6 3 4 11 7 353 336 332 308 276 257 254 261 263 263 266 268 266 255
256 257 106 100 118 150 190 131 118 113 109 107 97 81 96 88 78 71 62 49 39 33 30 17 5 0 354 358 358 350 333 320 317 305 285 267 253 254 263 265 272 270 272 268
233 238 149 118 145 137 92 91 92 89 85 84 83 83 86 84 81 75 65 49 32 22 15 11 7 357 353 351 346 343 329 314 303 293 293 294 273 262 262 262 270 270 271 276
45 81 86 76 79 81 93 90 83 81 80 82 86 85 80 80 82 75 64 48 28 7 352 359 5 354 344 340 340 334 323 313 307 302 299 298 289 277 267 263 264 267 268 270
96 109 102 93 86 79 81 80 76 76 77 78 71 72 65 60 60 60 50 35 16 360 348 344 347 344 338 337 332 323 314 308 307 308 304 303 298 286 278 267 264 269 272 273
128 122 111 102 99 90 85 81 78 73 70 62 53 45 32 22 30 35 29 19 3 344 334 331 334 331 326 325 325 316 311 312 311 308 301 297 292 286 283 275 265 265 268 272
186 158 153 139 123 112 106 98 92 84 71 53 35 32 21 14 24 22 8 359 348 339 335 331 333 334 332 329 320 312 311 313 312 310 304 295 291 293 279 274 275 270 263 266
52 92 100 113 112 112 119 115 104 88 69 50 30 27 14 7 10 2 346 340 336 331 326 324 326 326 327 327 324 318 312 309 305 303 304 298 293 292 295 293 279 273 271 270
78 96 120 122 123 121 123 120 109 81 56 40 29 18 7 354 345 338 332 337 337 327 318 316 316 320 327 327 322 315 313 309 306 297 297 296 291 289 288 289 293 287 275 267
102 117 127 123 125 127 121 123 117 81 40 25 18 2 350 338 332 332 335 335 326 315 313 316 316 319 322 320 315 312 310 304 302 300 295 291 288 284 282 282 284 287 288 282
143 131 128 136 140 138 132 127 108 23 20 12 0 348 339 330 326 326 324 321 314 312 312 312 313 320 322 318 312 305 298 296 299 295 291 289 288 287 287 286 287 289 287 287
163 159 156 160 162 170 178 187 341 352 352 349 344 338 329 320 314 312 313 314 310 308 308 309 312 320 320 315 310 305 301 302 302 297 289 290 291 290 291 287 284 285 283 282
162 157 161 165 174 188 209 329 343 341 337 333 328 319 315 314 312 311 313 311 305 303 305 309 315 322 318 311 309 307 305 300 296 294 294 293 293 291 290 290 289 288 288 285
159 150 145 154 186 247 275 304 312 310 311 310 307 306 306 305 304 304 307 308 309 309 310 315 322 320 309 307 310 302 301 300 300 298 296 295 294 290 289 288 286 285 284 283
151 162 189 224 252 274 284 288 292 294 296 298 298 297 298 299 301 301 299 296 292 293 303 315 316 309 306 309 313 305 302 300 299 298 296 294 294 293 292 290 289 287 284 281
192 214 232 242 254 267 276 279 281 283 288 290 290 290 293 295 296 296 294 291 291 299 305 306 303 299 303 312 310 300 296 296 296 296 295 294 294 293 293 293 292 290 288 285
216 232 247 256 260 266 271 277 281 284 288 289 289 290 291 291 293 293 289 283 285 296 298 295 296 302 309 310 297 292 290 290 291 291 291 292 294 295 295 295 294 293 291 288
241 249 254 260 266 274 279 279 280 284 286 289 289 288 288 287 286 286 288 289 292 303 302 288 294 300 302 299 286 283 283 286 287 289 290 290 290 291 293 295 296 296 293 291
260 263 266 272 276 278 279 282 286 287 288 290 287 287 289 289 287 285 286 297 303 303 297 292 296 298 299 291 282 280 282 283 283 284 286 288 289 289 291 293 293 292 290 288
264 266 268 273 275 275 279 286 289 287 285 282 285 289 292 291 293 297 297 298 300 297 289 292 297 300 297 287 285 284 284 281 283 288 286 287 286 287 287 288 289 290 289 286
277 275 272 272 275 275 278 279 278 279 281 284 286 291 294 295 295 294 290 291 294 296 293 286 287 290 290 288 287 288 287 288 289 287 284 287 288 288 288 289 290 291 291 290
275 275 270 264 264 262 266 270 275 280 285 288 292 294 295 295 292 291 293 292 292 290 290 290 292 292 290 287 286 285 286 286 286 285 285 284 285 285 287 288 289 290 290 287
Height
1469 1467 1468 1472 1474 1474 1477 1478 1486 1490 1491 1491 1492 1496 1499 1502 1504 1506 1508 1508 1509 1510 1510 1510 1511 1511 1511 1511 1511 1511 1511 1511 1510 1511 1510 1510 1509 1509 1509 1508 1508 1507 1507 1507
1471 1468 1470 1474 1474 1475 1478 1479 1483 1487 1491 1489 1492 1496 1499 1502 1505 1507 1508 1509 1510 1510 1510 1510 1510 1510 1510 1510 1510 1509 1509 1509 1509 1509 1509 1508 1507 1507 1507 1506 1505 1505 1505 1505
1477 1470 1472 1482 1475 1476 1479 1479 1481 1488 1491 1490 1494 1497 1500 1503 1505 1507 1509 1510 1510 1510 1510 1510 1510 1509 1509 1509 1509 1508 1508 1507 1507 1507 1506 1506 1505 1505 1504 1504 1503 1503 1502 1502
1475 1476 1490 1480 1469 1472 1477 1480 1480 1484 1488 1492 1495 1499 1502 1504 1506 1507 1509 1510 1510 1510 1510 1510 1509 1509 1508 1508 1507 1507 1506 1506 1505 1505 1504 1503 1503 1502 1501 1501 1500 1500 1499 1499
1476 1482 1482 1477 1471 1473 1479 1484 1482 1485 1489 1493 1496 1499 1503 1505 1506 1508 1509 1509 1509 1510 1509 1509 1508 1508 1507 1507 1506 1505 1505 1504 1503 1502 1502 1501 1500 1499 1498 1498 1497 1496 1496 1495
1476 1483 1487 1477 1471 1473 1479 1488 1485 1486 1490 1493 1495 1500 1505 1506 1507 1508 1508 1509 1509 1509 1509 1508 1507 1507 1506 1505 1505 1503 1503 1502 1501 1500 1499 1498 1497 1496 1495 1495 1494 1493 1492 1492
1479 1479 1477 1474 1473 1476 1489 1490 1486 1488 1491 1493 1496 1500 1504 1505 1506 1507 1508 1508 1508 1508 1507 1507 1506 1505 1505 1504 1503 1502 1500 1499 1498 1497 1496 1495 1494 1493 1492 1491 1490 1489 1489 1488
1474 1480 1485 1476 1476 1480 1485 1484 1487 1490 1493 1495 1498 1501 1503 1504 1506 1506 1507 1507 1507 1507 1506 1506 1505 1504 1503 1502 1501 1499 1498 1497 1495 1494 1493 1492 1491 1489 1488 1487 1486 1485 1484 1483
1471 1480 1478 1478 1479 1483 1485 1487 1490 1492 1495 1497 1500 1502 1503 1504 1505 1505 1506 1506 1505 1505 1505 1504 1503 1502 1501 1500 1498 1496 1495 1494 1493 1491 1490 1489 1487 1486 1484 1483 1482 1481 1480 1479
1474 1478 1479 1481 1483 1486 1487 1490 1492 1494 1497 1498 1500 1502 1503 1504 1504 1504 1504 1504 1504 1503 1503 1502 1501 1500 1499 1497 1496 1494 1492 1491 1489 1488 1486 1485 1484 1482 1481 1480 1478 1477 1476 1474
1473 1479 1481 1484 1486 1488 1490 1492 1494 1496 1497 1499 1500 1501 1502 1502 1503 1503 1503 1503 1502 1501 1501 1500 1499 1498 1496 1495 1493 1491 1490 1488 1487 1485 1483 1481 1480 1479 1477 1475 1475 1473 1471 1470
1475 1478 1480 1484 1486 1489 1491 1493 1494 1496 1497 1499 1499 1500 1501 1501 1501 1501 1501 1501 1500 1499 1499 1498 1496 1495 1494 1492 1490 1488 1487 1485 1483 1481 1479 1477 1475 1473 1472 1471 1469 1468 1466 1465
1475 1477 1480 1483 1486 1488 1491 1492 1494 1496 1497 1498 1499 1499 1499 1499 1499 1499 1499 1499 1498 1497 1496 1494 1493 1492 1490 1489 1487 1485 1483 1481 1479 1477 1475 1473 1471 1468 1466 1464 1463 1462 1460 1458
1477 1479 1481 1484 1486 1488 1490 1492 1493 1495 1496 1497 1497 1498 1498 1498 1498 1497 1497 1496 1495 1494 1493 1491 1490 1488 1487 1485 1483 1481 1479 1477 1475 1473 1470 1468 1466 1464 1461 1459 1456 1454 1453 1452
1478 1479 1481 1484 1486 1488 1490 1491 1492 1494 1494 1495 1496 1496 1496 1496 1495 1495 1494 1493 1492 1491 1489 1488 1486 1485 1483 1481 1479 1477 1474 1472 1470 1468 1465 1463 1460 1458 1456 1454 1451 1448 1446 1444
1477 1479 1481 1483 1485 1487 1489 1490 1491 1492 1493 1493 1494 1494 1494 1493 1493 1492 1491 1490 1489 1487 1486 1484 1482 1480 1478 1476 1474 1472 1469 1467 1465 1462 1460 1457 1455 1453 1450 1448 1445 1443 1440 1438
1477 1479 1481 1483 1485 1486 1488 1489 1490 1491 1491 1492 1492 1491 1491 1490 1490 1489 1488 1487 1485 1484 1482 1480 1478 1476 1474 1472 1469 1467 1464 1462 1459 1457 1454 1452 1450 1447 1445 1442 1439 1437 1434 1432
1476 1478 1480 1482 1483 1485 1486 1488 1488 1489 1489 1489 1489 1489 1488 1487 1486 1485 1484 1482 1481 1479 1478 1476 1474 1471 1469 1467 1464 1462 1459 1456 1454 1451 1449 1446 1443 1441 1438 1436 1433 1430 1427 1425
1475 1477 1479 1481 1482 1483 1485 1485 1486 1487 1487 1487 1486 1486 1485 1484 1483 1482 1480 1478 1476 1475 1473 1471 1469 1466 1464 1462 1459 1456 1453 1451 1448 1445 1443 1440 1437 1434 1431 1428 1426 1423 1420 1418
1474 1476 1478 1479 1480 1481 1482 1483 1483 1484 1483 1483 1483 1482 1481 1480 1479 1477 1475 1474 1472 1470 1468 1466 1464 1461 1459 1456 1454 1450 1448 1445 1442 1439 1436 1433 1430 1427 1424 1421 1418 1415 1413 1410
1473 1475 1476 1477 1478 1479 1479 1480 1480 1480 1479 1479 1478 1477 1476 1475 1474 1472 1470 1468 1467 1465 1463 1461 1458 1456 1453 1450 1448 1444 1441 1439 1436 1433 1430 1427 1424 1420 1417 1414 1411 1408 1406 1403
1471 1472 1473 1474 1475 1476 1476 1476 1476 1476 1475 1474 1474 1473 1471 1470 1469 1467 1465 1464 1461 1459 1457 1455 1452 1450 1447 1444 1441 1438 1435 1432 1429 1426 1423 1420 1417 1413 1410 1407 1404 1401 1398 1396
1468 1469 1470 1471 1471 1472 1472 1472 1472 1471 1470 1470 1469 1468 1466 1465 1463 1462 1459 1458 1456 1454 1451 1449 1446 1444 1441 1437 1434 1431 1428 1426 1422 1420 1416 1413 1410 1407 1403 1400 1397 1394 1391 1388
1465 1466 1467 1467 1467 1467 1467 1467 1467 1466 1466 1465 1464 1462 1461 1459 1457 1456 1454 1452 1450 1448 1445 1442 1440 1437 1434 1431 1427 1425 1422 1419 1416 1413 1410 1406 1403 1400 1397 1393 1390 1386 1383 1380
1462 1462 1463 1463 1463 1463 1463 1463 1462 1461 1461 1459 1458 1457 1456 1454 1452 1450 1448 1446 1444 1441 1438 1435 1433 1430 1427 1424 1421 1418 1415 1412 1409 1406 1403 1399 1396 1393 1390 1386 1383 1379 1376 1373
1458 1458 1459 1459 1459 1459 1458 1458 1457 1457 1456 1454 1453 1452 1450 1449 1447 1445 1442 1440 1438 1435 1432 1429 1426 1423 1420 1417 1414 1411 1408 1405 1402 1399 1395 1392 1389 1386 1382 1379 1376 1372 1369 1365
1454 1455 1455 1455 1454 1454 1454 1453 1453 1452 1451 1450 1448 1447 1445 1443 1441 1439 1436 1434 1431 1429 1426 1423 1420 1417 1413 1410 1407 1404 1401 1398 1395 1391 1388 1385 1381 1378 1375 1372 1369 1365 1362 1359